Time,TemperatureF,DewpointF,PressureIn,WindDirection,WindDirectionDegrees,WindSpeedMPH,WindSpeedGustMPH,Humidity,HourlyPrecipIn,Conditions,Clouds,dailyrainin,SoftwareType,DateUTC
2013-06-25 00:01:00,68.0,62.0,29.80,South,180,0.0,0.0,82,0.00,,,0.00,,2013-06-25 05:01:00,
2013-06-25 00:11:00,68.0,62.0,29.80,South,180,0.0,0.0,82,0.00,,,0.00,,2013-06-25 05:11:00,
2013-06-25 00:32:00,67.0,62.0,29.80,East,98,0.0,1.0,85,0.00,,,0.00,,2013-06-25 05:32:00,
2013-06-25 00:44:00,67.0,62.0,29.79,East,98,0.0,0.0,85,0.00,,,0.00,,2013-06-25 05:44:00,
2013-06-25 00:52:00,67.0,62.0,29.79,East,98,0.0,0.0,85,0.00,,,0.00,,2013-06-25 05:52:00,
2013-06-25 01:01:00,67.0,62.0,29.78,East,98,0.0,0.0,85,0.00,,,0.00,,2013-06-25 06:01:00,
2013-06-25 01:11:00,67.0,62.0,29.78,East,98,0.0,0.0,85,0.00,,,0.00,,2013-06-25 06:11:00,
2013-06-25 01:33:00,67.0,62.0,29.78,East,98,0.0,0.0,85,0.00,,,0.00,,2013-06-25 06:33:00,
2013-06-25 02:02:00,67.0,63.0,29.78,East,98,0.0,0.0,86,0.00,,,0.00,,2013-06-25 07:02:00,
2013-06-25 02:11:00,67.0,63.0,29.78,East,98,0.0,0.0,87,0.00,,,0.00,,2013-06-25 07:11:00,
2013-06-25 02:33:00,68.0,63.0,29.78,East,98,0.0,0.0,85,0.00,,,0.00,,2013-06-25 07:33:00,
2013-06-25 03:01:00,67.0,62.0,29.79,East,98,0.0,0.0,85,0.00,,,0.00,,2013-06-25 08:01:00,
2013-06-25 03:11:00,67.0,63.0,29.78,East,98,0.0,0.0,86,0.00,,,0.00,,2013-06-25 08:11:00,
2013-06-25 03:21:00,67.0,63.0,29.79,East,98,0.0,1.0,86,0.00,,,0.00,,2013-06-25 08:21:00,
2013-06-25 03:34:00,67.0,63.0,29.79,East,98,0.0,0.0,87,0.00,,,0.00,,2013-06-25 08:34:00,
2013-06-25 03:43:00,67.0,63.0,29.79,East,98,0.0,1.0,88,0.00,,,0.00,,2013-06-25 08:43:00,
2013-06-25 03:53:00,66.0,63.0,29.79,East,98,0.0,0.0,89,0.00,,,0.00,,2013-06-25 08:53:00,
2013-06-25 04:02:00,66.0,63.0,29.79,East,98,0.0,0.0,89,0.00,,,0.00,,2013-06-25 09:02:00,
2013-06-25 04:12:00,66.0,63.0,29.79,East,98,0.0,0.0,90,0.00,,,0.00,,2013-06-25 09:12:00,
2013-06-25 04:33:00,66.0,63.0,29.80,East,98,0.0,0.0,90,0.00,,,0.00,,2013-06-25 09:33:00,
2013-06-25 04:43:00,66.0,63.0,29.79,East,98,0.0,0.0,90,0.00,,,0.00,,2013-06-25 09:43:00,
2013-06-25 05:01:00,65.0,62.0,29.78,East,98,0.0,0.0,90,0.00,,,0.00,,2013-06-25 10:01:00,
2013-06-25 05:11:00,65.0,62.0,29.77,East,98,0.0,0.0,90,0.00,,,0.00,,2013-06-25 10:11:00,
2013-06-25 05:21:00,65.0,62.0,29.77,East,98,0.0,0.0,91,0.00,,,0.00,,2013-06-25 10:21:00,
2013-06-25 05:33:00,65.0,62.0,29.77,East,98,0.0,0.0,91,0.00,,,0.00,,2013-06-25 10:33:00,
2013-06-25 05:42:00,65.0,62.0,29.77,East,98,0.0,0.0,91,0.00,,,0.00,,2013-06-25 10:42:00,
2013-06-25 05:52:00,65.0,62.0,29.77,East,98,0.0,0.0,91,0.00,,,0.00,,2013-06-25 10:52:00,
2013-06-25 06:02:00,65.0,62.0,29.77,East,98,0.0,0.0,91,0.00,,,0.00,,2013-06-25 11:02:00,
2013-06-25 06:12:00,64.0,61.0,29.77,East,98,0.0,0.0,91,0.00,,,0.00,,2013-06-25 11:12:00,
2013-06-25 06:43:00,65.0,62.0,29.77,ESE,113,0.0,0.0,90,0.00,,,0.00,,2013-06-25 11:43:00,
2013-06-25 07:01:00,65.0,62.0,29.76,ESE,113,0.0,0.0,90,0.00,,,0.00,,2013-06-25 12:01:00,
2013-06-25 07:11:00,65.0,62.0,29.76,ESE,113,0.0,0.0,90,0.00,,,0.00,,2013-06-25 12:11:00,
2013-06-25 07:33:00,66.0,63.0,29.79,ESE,113,0.0,0.0,91,0.00,,,0.00,,2013-06-25 12:33:00,
2013-06-25 07:43:00,66.0,64.0,29.79,ESE,112,0.0,1.0,92,0.00,,,0.00,,2013-06-25 12:43:00,
2013-06-25 08:02:00,69.0,65.0,29.79,SE,140,0.0,1.0,86,0.00,,,0.00,,2013-06-25 13:02:00,
2013-06-25 08:11:00,69.0,64.0,29.80,SE,131,0.0,1.0,85,0.00,,,0.00,,2013-06-25 13:11:00,
2013-06-25 08:34:00,71.0,65.0,29.81,South,174,0.0,2.0,82,0.00,,,0.00,,2013-06-25 13:34:00,
2013-06-25 08:42:00,71.0,65.0,29.81,SE,130,0.0,3.0,81,0.00,,,0.00,,2013-06-25 13:42:00,
2013-06-25 09:01:00,71.0,65.0,29.79,SSE,161,0.0,0.0,80,0.00,,,0.00,,2013-06-25 14:01:00,
2013-06-25 09:11:00,72.0,65.0,29.78,ESE,104,0.0,1.0,79,0.00,,,0.00,,2013-06-25 14:11:00,
2013-06-25 09:23:00,74.0,66.0,29.78,NE,55,0.0,1.0,75,0.00,,,0.00,,2013-06-25 14:23:00,
2013-06-25 09:34:00,75.0,64.0,29.78,East,89,0.0,2.0,68,0.00,,,0.00,,2013-06-25 14:34:00,
2013-06-25 09:43:00,75.0,64.0,29.77,ESE,102,0.0,2.0,68,0.00,,,0.00,,2013-06-25 14:43:00,
2013-06-25 10:02:00,76.0,64.0,29.77,ESE,103,0.0,1.0,67,0.00,,,0.00,,2013-06-25 15:02:00,
2013-06-25 10:11:00,77.0,63.0,29.77,SSE,155,0.0,3.0,63,0.00,,,0.00,,2013-06-25 15:11:00,
2013-06-25 10:22:00,78.0,64.0,29.77,East,98,0.0,1.0,63,0.00,,,0.00,,2013-06-25 15:22:00,
2013-06-25 10:32:00,80.0,65.0,29.76,SSE,148,0.0,2.0,61,0.00,,,0.00,,2013-06-25 15:32:00,
2013-06-25 10:44:00,80.0,65.0,29.76,SE,140,0.0,2.0,60,0.00,,,0.00,,2013-06-25 15:44:00,
2013-06-25 11:03:00,79.0,64.0,29.75,South,188,0.0,2.0,61,0.00,,,0.00,,2013-06-25 16:03:00,
2013-06-25 11:12:00,78.0,64.0,29.75,North,349,1.0,3.0,63,0.00,,,0.00,,2013-06-25 16:12:00,
2013-06-25 11:35:00,80.0,63.0,29.75,SSW,198,0.0,1.0,56,0.00,,,0.00,,2013-06-25 16:35:00,
2013-06-25 11:44:00,81.0,64.0,29.75,NE,49,0.0,1.0,56,0.00,,,0.00,,2013-06-25 16:44:00,
2013-06-25 11:52:00,82.0,65.0,29.75,SW,229,1.0,3.0,57,0.00,,,0.00,,2013-06-25 16:52:00,
2013-06-25 12:01:00,84.0,66.0,29.76,SW,218,0.0,1.0,55,0.00,,,0.00,,2013-06-25 17:01:00,
2013-06-25 12:11:00,84.0,64.0,29.76,South,188,0.0,3.0,52,0.00,,,0.00,,2013-06-25 17:11:00,
2013-06-25 12:33:00,83.0,64.0,29.75,ESE,104,0.0,3.0,53,0.00,,,0.00,,2013-06-25 17:33:00,
2013-06-25 12:44:00,84.0,63.0,29.75,WNW,292,0.0,3.0,50,0.00,,,0.00,,2013-06-25 17:44:00,
2013-06-25 13:02:00,85.0,65.0,29.75,SSE,155,0.0,3.0,52,0.00,,,0.00,,2013-06-25 18:02:00,
2013-06-25 13:12:00,85.0,65.0,29.75,SE,146,0.0,2.0,52,0.00,,,0.00,,2013-06-25 18:12:00,
2013-06-25 13:34:00,84.0,65.0,29.76,SSE,161,1.0,3.0,53,0.00,,,0.00,,2013-06-25 18:34:00,
2013-06-25 13:44:00,83.0,65.0,29.76,ENE,65,0.0,3.0,54,0.00,,,0.00,,2013-06-25 18:44:00,
2013-06-25 13:52:00,84.0,67.0,29.76,SW,229,0.0,2.0,56,0.00,,,0.00,,2013-06-25 18:52:00,
2013-06-25 14:01:00,85.0,68.0,29.75,SSW,192,0.0,1.0,56,0.00,,,0.00,,2013-06-25 19:01:00,
2013-06-25 14:12:00,85.0,68.0,29.75,SW,225,0.0,2.0,56,0.00,,,0.00,,2013-06-25 19:12:00,
2013-06-25 14:22:00,85.0,66.0,29.75,SE,140,1.0,8.0,54,0.00,,,0.00,,2013-06-25 19:22:00,
2013-06-25 14:33:00,84.0,66.0,29.74,ENE,65,1.0,2.0,55,0.00,,,0.00,,2013-06-25 19:33:00,
2013-06-25 14:44:00,84.0,67.0,29.74,ESE,106,0.0,2.0,56,0.00,,,0.00,,2013-06-25 19:44:00,
2013-06-25 15:02:00,85.0,67.0,29.74,East,98,0.0,3.0,55,0.00,,,0.00,,2013-06-25 20:02:00,
2013-06-25 15:11:00,85.0,68.0,29.74,SE,133,0.0,3.0,57,0.00,,,0.00,,2013-06-25 20:11:00,
2013-06-25 15:33:00,84.0,67.0,29.72,ESE,114,0.0,2.0,56,0.00,,,0.00,,2013-06-25 20:33:00,
2013-06-25 15:42:00,84.0,68.0,29.72,ENE,78,0.0,2.0,58,0.00,,,0.00,,2013-06-25 20:42:00,
2013-06-25 15:52:00,84.0,68.0,29.72,NW,320,0.0,2.0,58,0.00,,,0.00,,2013-06-25 20:52:00,
2013-06-25 16:01:00,85.0,69.0,29.72,SSE,151,0.0,1.0,58,0.00,,,0.00,,2013-06-25 21:01:00,
2013-06-25 16:11:00,84.0,68.0,29.72,South,179,0.0,3.0,58,0.00,,,0.00,,2013-06-25 21:11:00,
2013-06-25 16:22:00,84.0,68.0,29.72,East,101,0.0,3.0,59,0.00,,,0.00,,2013-06-25 21:22:00,
2013-06-25 16:34:00,85.0,69.0,29.72,SE,144,0.0,3.0,59,0.00,,,0.00,,2013-06-25 21:34:00,
2013-06-25 16:43:00,86.0,69.0,29.72,SE,143,0.0,3.0,57,0.00,,,0.00,,2013-06-25 21:43:00,
2013-06-25 17:01:00,85.0,69.0,29.72,ENE,71,0.0,3.0,59,0.00,,,0.00,,2013-06-25 22:01:00,
2013-06-25 17:11:00,85.0,69.0,29.72,East,93,0.0,2.0,59,0.00,,,0.00,,2013-06-25 22:11:00,
2013-06-25 17:34:00,85.0,69.0,29.71,SSW,194,0.0,1.0,59,0.00,,,0.00,,2013-06-25 22:34:00,
2013-06-25 17:42:00,85.0,68.0,29.71,ESE,109,1.0,2.0,57,0.00,,,0.00,,2013-06-25 22:42:00,
2013-06-25 17:52:00,85.0,69.0,29.71,East,91,0.0,1.0,59,0.00,,,0.00,,2013-06-25 22:52:00,
2013-06-25 18:01:00,85.0,69.0,29.70,ESE,108,0.0,1.0,59,0.00,,,0.00,,2013-06-25 23:01:00,
2013-06-25 18:11:00,85.0,70.0,29.70,ESE,119,0.0,1.0,60,0.00,,,0.00,,2013-06-25 23:11:00,
2013-06-25 18:34:00,85.0,70.0,29.71,SE,144,0.0,0.0,60,0.00,,,0.00,,2013-06-25 23:34:00,
2013-06-25 18:43:00,85.0,70.0,29.71,SE,145,0.0,0.0,61,0.00,,,0.00,,2013-06-25 23:43:00,
2013-06-25 18:52:00,85.0,69.0,29.70,South,171,0.0,1.0,59,0.00,,,0.00,,2013-06-25 23:52:00,
2013-06-25 19:02:00,84.0,70.0,29.70,South,173,0.0,1.0,62,0.00,,,0.00,,2013-06-26 00:02:00,
2013-06-25 19:11:00,84.0,69.0,29.70,South,173,0.0,0.0,61,0.00,,,0.00,,2013-06-26 00:11:00,
2013-06-25 19:22:00,84.0,69.0,29.70,South,182,0.0,1.0,61,0.00,,,0.00,,2013-06-26 00:22:00,
2013-06-25 19:33:00,84.0,70.0,29.70,South,182,0.0,0.0,62,0.00,,,0.00,,2013-06-26 00:33:00,
2013-06-25 19:42:00,83.0,70.0,29.70,SSW,192,0.0,0.0,65,0.00,,,0.00,,2013-06-26 00:42:00,
2013-06-25 20:01:00,83.0,69.0,29.70,SSW,194,0.0,0.0,63,0.00,,,0.00,,2013-06-26 01:01:00,
2013-06-25 20:11:00,82.0,69.0,29.70,ESE,123,0.0,0.0,66,0.00,,,0.00,,2013-06-26 01:11:00,
2013-06-25 20:22:00,82.0,70.0,29.69,SE,131,0.0,1.0,67,0.00,,,0.00,,2013-06-26 01:22:00,
2013-06-25 20:33:00,82.0,70.0,29.70,SE,132,0.0,0.0,68,0.00,,,0.00,,2013-06-26 01:33:00,
2013-06-25 20:43:00,81.0,70.0,29.69,SE,132,0.0,0.0,70,0.00,,,0.00,,2013-06-26 01:43:00,
2013-06-25 21:02:00,80.0,70.0,29.69,SE,132,0.0,0.0,71,0.00,,,0.00,,2013-06-26 02:02:00,
2013-06-25 21:11:00,80.0,71.0,29.69,SE,132,0.0,0.0,73,0.00,,,0.00,,2013-06-26 02:11:00,
2013-06-25 21:34:00,79.0,69.0,29.69,SE,133,0.0,0.0,72,0.00,,,0.00,,2013-06-26 02:34:00,
2013-06-25 21:43:00,78.0,69.0,29.68,SE,143,0.0,0.0,73,0.00,,,0.00,,2013-06-26 02:43:00,
2013-06-25 21:53:00,78.0,70.0,29.69,SE,144,0.0,0.0,76,0.00,,,0.00,,2013-06-26 02:53:00,
2013-06-25 22:02:00,77.0,68.0,29.69,SE,144,0.0,0.0,75,0.00,,,0.00,,2013-06-26 03:02:00,
2013-06-25 22:22:00,76.0,69.0,29.69,SE,144,0.0,0.0,78,0.00,,,0.00,,2013-06-26 03:22:00,
2013-06-25 22:33:00,76.0,69.0,29.68,SE,144,0.0,0.0,78,0.00,,,0.00,,2013-06-26 03:33:00,
2013-06-25 22:43:00,76.0,69.0,29.68,SE,144,0.0,0.0,79,0.00,,,0.00,,2013-06-26 03:43:00,
2013-06-25 22:52:00,75.0,68.0,29.68,SE,144,0.0,0.0,80,0.00,,,0.00,,2013-06-26 03:52:00,
2013-06-25 23:01:00,74.0,68.0,29.68,SE,144,0.0,0.0,81,0.00,,,0.00,,2013-06-26 04:01:00,
2013-06-25 23:12:00,74.0,68.0,29.68,SE,144,0.0,0.0,83,0.00,,,0.00,,2013-06-26 04:12:00,
2013-06-25 23:22:00,74.0,68.0,29.68,SE,144,0.0,0.0,83,0.00,,,0.00,,2013-06-26 04:22:00,
2013-06-25 23:33:00,74.0,69.0,29.68,SE,144,0.0,0.0,84,0.00,,,0.00,,2013-06-26 04:33:00,
2013-06-25 23:43:00,73.0,68.0,29.68,SE,144,0.0,0.0,84,0.00,,,0.00,,2013-06-26 04:43:00,